sat.trackr.live / text

‹ back to catalog

STARLINK-31745

NORAD 60329 · 2024-136A

PAYLOAD ACTIVE UNKNOWN

§ Identity

Operator
Country
US
Launch date
2024-08-02
Launch site
AFETR
Launch vehicle
Mass (kg)
RCS (m²)

Purposes: comms

External: N2YO · Heavens-Above · Gunter

§ Orbital elements

Epoch: 2026-09-21T09:06:08.103744Z

Period
94.01 min
Inclination
53.1582°
Eccentricity
0.0001201
Mean motion
15.31704839 rev/d
Perigee alt
469.9 km
Apogee alt
471.5 km
Semi-major
6,848.9 km
B*
2.4828e-5
RAAN
245.4278°
Arg perigee
83.9815°
Mean anomaly
276.1323°
Rev number
12,085

§ Raw data

STARLINK-317451 60329U 24136A   26264.37926046  .00000405  00000+0  24828-4 0  99992 60329  53.1582 245.4278 0001201  83.9815 276.1323 15.31704839120857

JSON: /api/v1/satellites/60329 · /tle

For live sub-satellite position, see the globe view (requires WebGL).

§ Visibility from observer

Set your observer location to see the next 7 days of passes ≥ 10°. The values pass through the URL so the page stays shareable.

No JS? Fill the form by hand. The geolocation button needs JavaScript.